This is the latest recevied weather packets stored in our database for station/object W5CRT. If no packets are shown the sender has not sent any weather packets the latest 10 day(s).
| Time | Temp. | Humidity | Pressure | Rain* | Wind** | Luminosity | Snow |
|---|---|---|---|---|---|---|---|
| 1777724057 | 13.33° C | 79% | 1018.5 hPa | 0 mm | - | 40 W/m² | - |
| 1777723755 | 12.78° C | 81% | 1018.4 hPa | 0 mm | - | 34 W/m² | - |
| 1777723450 | 12.22° C | 82% | 1018.1 hPa | 0 mm | - | 28 W/m² | - |
| 1777723148 | 12.22° C | 84% | 1018.2 hPa | 0 mm | - | 23 W/m² | - |
| 1777722845 | 11.67° C | 85% | 1018.1 hPa | 0 mm | - | 17 W/m² | - |
| 1777722541 | 11.67° C | 85% | 1018 hPa | 0 mm | - | 12 W/m² | - |
| 1777722238 | 12.22° C | 85% | 1017.9 hPa | 0 mm | - | 8 W/m² | - |
| 1777721935 | 12.22° C | 85% | 1017.9 hPa | 0 mm | - | 5 W/m² | - |
| 1777721632 | 12.22° C | 87% | 1017.7 hPa | 0 mm | - | 2 W/m² | - |
| 1777721331 | 12.22° C | 87% | 1017.9 hPa | 0 mm | - | 1 W/m² | - |
| 1777721028 | 12.22° C | 87% | 1017.6 hPa | 0 mm | - | 0 W/m² | - |
| 1777720725 | 12.22° C | 86% | 1017.7 hPa | 0 mm | - | 0 W/m² | - |
| 1777720422 | 12.22° C | 86% | 1017.7 hPa | 0 mm | - | 0 W/m² | - |
| 1777720120 | 12.22° C | 85% | 1017.5 hPa | 0 mm | - | 0 W/m² | - |
| 1777719818 | 12.22° C | 85% | 1017.6 hPa | 0 mm | - | 0 W/m² | - |
| 1777719515 | 12.22° C | 85% | 1017.5 hPa | 0 mm | - | 0 W/m² | - |
| 1777719212 | 12.22° C | 86% | 1017.3 hPa | 0 mm | - | 0 W/m² | - |
| 1777718910 | 12.22° C | 86% | 1017.2 hPa | 0 mm | - | 0 W/m² | - |
| 1777718607 | 12.22° C | 86% | 1017.1 hPa | 0 mm | - | 0 W/m² | - |
| 1777718304 | 12.22° C | 87% | 1017 hPa | 0 mm | - | 0 W/m² | - |
| 1777718001 | 12.22° C | 88% | 1017 hPa | 0 mm | - | 0 W/m² | - |
| 1777717699 | 11.67° C | 90% | 1017 hPa | 0 mm | - | 0 W/m² | - |
| 1777717394 | 11.67° C | 91% | 1017 hPa | 0 mm | - | 0 W/m² | - |
| 1777717093 | 11.11° C | 90% | 1016.9 hPa | 0 mm | - | 0 W/m² | - |
| 1777716790 | 11.67° C | 90% | 1017 hPa | 0 mm | - | 0 W/m² | - |
* Rain latest hour (hover to see other rain measurements)
** Current wind speed in m/s (hover to see current wind gust speed)